Temp
18 18 18 18 18 18 17 17 17 17 17 17 17 16 16 15 14 14 14 14 13 13 13 13 13 13 13 13 13 13 13 12 12 12 12 12 12 12 11 12 12 12
17 17 18 18 18 18 17 17 17 17 17 17 17 16 16 15 14 14 14 13 13 13 13 13 13 12 13 13 12 13 12 12 12 12 12 12 12 11 11 11 11 12
17 17 17 17 18 17 17 17 17 17 17 17 16 16 15 14 14 14 14 13 13 13 13 13 13 13 13 12 12 12 12 12 12 12 12 12 12 12 11 11 11 11
17 17 17 17 17 17 17 17 17 17 17 17 16 16 15 14 14 14 14 14 13 13 13 13 13 13 13 12 12 12 12 12 12 11 12 11 11 11 11 11 11 11
17 17 17 17 17 17 16 16 16 17 17 16 16 16 15 14 14 14 14 14 14 13 13 13 13 13 12 12 13 12 12 12 11 11 12 11 11 11 11 11 11 11
16 17 17 17 17 16 16 16 16 17 16 16 16 16 15 15 14 14 14 14 14 13 13 13 13 13 12 13 13 12 12 12 11 11 12 11 11 11 10 11 11 11
16 17 16 17 17 16 16 16 16 16 16 16 16 16 16 15 15 15 14 14 14 14 14 13 13 13 13 13 13 12 12 12 11 11 12 11 11 11 10 10 11 11
16 16 16 16 16 16 16 16 16 16 16 16 16 16 16 15 15 15 15 15 14 14 14 14 13 13 13 13 13 12 12 11 11 12 12 11 11 11 11 10 10 11
16 16 16 16 16 16 16 16 16 16 16 16 16 16 16 16 16 15 15 15 15 14 14 14 14 13 13 13 13 12 12 11 11 11 11 11 11 11 11 11 10 10
16 16 16 16 16 16 16 16 16 16 16 16 16 16 16 16 16 16 15 15 15 15 14 14 14 13 12 12 12 12 12 11 11 11 11 11 11 11 11 10 10 10
15 15 15 16 16 16 16 16 16 16 16 15 16 16 16 16 16 16 15 15 15 15 14 14 13 13 13 12 12 12 11 11 11 11 10 10 10 10 10 10 10 10
15 15 15 16 16 16 16 16 15 15 15 15 15 16 16 16 15 15 15 15 15 15 15 14 13 13 13 12 12 11 11 11 11 10 10 10 10 10 10 10 9 10
15 15 15 16 16 16 16 16 16 15 15 15 15 15 16 15 15 15 15 15 15 15 14 14 13 13 13 12 12 11 11 10 10 10 10 10 9 9 9 9 9 9
15 15 15 16 16 16 16 16 16 15 15 15 15 15 15 15 15 15 15 15 15 15 14 14 13 13 12 12 11 11 11 10 10 10 10 9 9 9 9 9 9 8
14 14 15 15 15 15 16 16 16 15 15 15 15 14 14 14 15 15 15 15 14 14 14 13 13 12 12 11 11 11 10 10 10 10 10 9 9 9 9 8 8 8
14 14 14 15 15 15 15 15 15 15 15 15 15 14 14 14 14 15 14 14 14 13 13 12 12 11 11 11 11 11 10 10 10 9 9 9 9 9 9 8 8 8
15 14 15 15 15 15 15 15 15 15 15 15 14 14 14 13 14 14 13 13 13 13 12 11 11 10 10 10 10 10 10 10 9 9 9 9 9 9 9 8 8 8
15 15 15 15 15 15 15 15 15 15 15 15 14 14 13 13 13 13 13 13 13 12 11 10 10 10 10 10 9 9 9 9 9 9 9 9 9 8 8 8 8 8
14 15 15 15 15 15 15 15 15 15 15 15 14 14 13 13 13 13 13 12 12 12 11 10 9 10 10 9 9 9 9 9 9 9 9 9 8 8 8 8 8 7
14 14 15 15 15 15 14 14 14 14 14 14 14 13 13 13 13 13 12 12 11 11 10 9 9 9 9 9 9 9 8 8 9 8 8 8 8 7 7 7 7 7
14 14 14 14 14 14 14 14 14 14 14 14 13 13 13 13 12 12 12 11 11 11 10 9 9 9 9 9 9 8 8 8 8 8 8 8 8 7 7 7 7 7
13 13 13 14 14 14 14 14 14 13 13 13 13 12 12 12 12 11 11 11 10 10 9 9 9 9 9 8 8 8 8 7 7 7 8 8 8 7 7 7 7 7
12 13 13 13 13 14 14 14 13 13 13 13 12 11 11 11 11 10 10 10 10 9 9 9 8 8 8 8 8 8 7 7 8 8 8 8 8 7 7 7 7 6
12 12 12 13 13 13 14 14 13 13 13 12 12 11 11 10 10 10 9 9 9 9 9 9 8 8 8 8 8 8 7 7 8 8 8 8 8 8 8 7 7 6
11 11 12 12 13 13 13 13 13 12 12 12 11 11 10 9 9 9 8 8 9 8 8 8 8 8 8 8 8 7 7 7 7 8 8 8 8 8 8 7 7 7
11 11 11 11 12 12 12 12 12 12 12 11 10 9 9 8 8 8 8 8 8 8 8 8 8 8 8 7 7 7 6 6 6 7 7 8 8 8 7 7 7 7
Height
809 810 811 812 814 815 816 817 819 820 821 822 823 825 826 827 828 829 829 830 830 830 830 831 831 831 832 832 832 833 833 833 833 833 833 833 833 833 833 833 833 833
806 808 809 811 812 813 814 815 817 818 820 821 822 824 825 826 827 828 829 829 830 830 830 830 831 831 832 832 833 833 833 833 834 834 834 834 835 834 834 834 834 834
804 805 807 808 810 811 812 814 815 817 818 820 821 822 824 825 826 827 828 828 829 829 830 830 830 831 831 832 832 833 833 833 834 834 834 835 835 835 835 835 835 834
803 804 805 806 807 809 810 811 813 815 817 818 819 821 822 823 825 826 827 827 828 828 829 829 830 830 831 831 831 832 832 833 833 834 834 834 835 835 835 835 835 835
801 802 803 805 805 806 807 809 810 812 814 816 818 819 820 821 823 824 826 826 827 828 828 829 829 830 830 830 831 831 831 832 832 833 833 834 834 834 834 835 835 835
799 800 801 803 804 805 806 806 808 809 811 814 815 817 818 820 821 823 824 825 826 827 827 828 829 829 830 830 830 830 831 831 831 832 832 833 833 833 834 834 834 834
798 799 800 801 802 803 804 805 806 807 809 811 812 814 816 818 819 821 822 823 824 825 826 827 827 828 829 829 830 830 830 831 831 831 831 832 832 832 832 833 833 833
797 798 799 799 800 801 802 803 804 805 807 808 810 812 813 815 817 818 820 821 823 824 824 825 826 827 828 828 829 829 830 830 830 830 831 831 831 831 831 831 831 831
796 797 798 798 798 798 800 801 803 804 805 806 807 809 810 812 814 816 817 819 820 821 822 823 824 825 826 827 828 828 829 829 829 829 830 830 830 830 830 830 830 830
794 796 798 797 796 796 797 798 800 802 803 804 805 807 808 809 811 812 814 815 817 818 820 821 822 823 824 824 825 826 827 828 828 828 829 829 829 829 829 829 829 829
792 795 798 797 796 795 795 796 798 799 801 801 803 804 805 806 808 809 810 811 813 814 816 817 819 820 821 822 823 824 825 826 826 827 827 828 828 828 828 828 828 828
792 795 796 795 795 794 793 794 795 797 798 799 800 801 802 803 804 806 807 808 809 810 812 814 815 817 818 819 821 822 823 824 825 826 826 826 826 826 826 826 826 826
793 794 793 792 791 791 791 792 793 794 795 796 797 798 799 799 800 802 803 805 807 808 809 811 812 814 816 817 819 820 821 822 823 824 824 825 825 825 825 825 825 825
792 791 790 789 789 788 789 789 791 792 793 794 795 795 796 796 797 798 800 802 803 805 806 808 810 812 814 815 817 818 819 820 821 822 823 823 823 823 823 824 823 823
790 789 788 788 787 786 787 787 789 790 791 792 792 792 793 793 794 795 796 798 799 801 803 805 807 810 811 813 815 817 818 818 819 820 821 821 822 822 822 822 822 822
789 788 787 786 785 784 784 785 786 787 788 789 789 789 790 790 791 793 794 795 797 798 800 802 804 806 808 810 813 815 816 817 818 819 819 820 820 820 820 820 820 820
788 787 786 785 783 783 782 783 784 785 785 786 786 787 788 788 788 790 791 794 795 796 797 799 800 802 804 807 810 813 815 816 817 818 819 819 819 819 819 818 818 818
786 785 784 783 782 781 781 781 781 782 783 783 784 785 785 785 786 787 789 792 793 794 795 796 797 799 802 805 808 810 812 814 816 817 817 818 818 818 817 817 816 816
784 783 782 781 780 780 779 779 779 780 780 781 782 782 783 784 784 786 787 789 791 792 793 794 795 798 801 804 806 808 810 812 814 815 816 817 817 817 816 816 815 815
782 781 780 779 779 778 778 778 778 778 778 779 780 780 781 782 783 784 786 787 788 790 792 793 795 798 800 802 804 806 808 810 812 814 814 815 815 815 815 814 814 814
780 779 778 778 777 776 776 775 775 775 776 777 778 778 779 779 781 782 784 785 786 788 790 791 794 797 799 801 803 805 807 809 811 812 813 813 813 813 813 812 812 811
778 777 777 776 775 774 773 773 773 773 774 775 776 776 776 777 779 780 782 784 785 787 788 790 793 796 798 800 802 804 806 808 809 811 811 811 811 811 810 810 809 808
776 775 774 774 773 772 771 771 771 771 771 773 774 774 774 775 777 778 780 782 783 785 787 790 794 796 798 799 801 803 805 807 808 809 809 809 809 809 808 807 807 806
774 773 772 771 770 769 769 768 769 769 769 771 772 772 772 774 776 777 778 780 782 784 787 790 794 797 798 799 801 802 804 806 807 807 807 807 807 806 806 805 804 803
771 770 769 769 768 767 766 766 766 767 768 769 770 770 770 772 774 775 777 779 782 785 788 791 794 796 797 798 800 801 803 805 806 805 805 805 805 804 803 802 801 800
769 768 767 766 765 765 764 764 764 764 765 767 768 768 769 770 772 774 776 779 783 786 789 792 794 796 797 798 799 801 802 803 804 804 804 803 802 801 801 800 799 798
Wind_Speed
14 12 12 13 12 11 12 12 11 11 10 9 9 10 11 11 12 10 9 9 9 10 10 9 9 8 8 8 7 7 7 7 7 6 6 6 5 5 4 4 2 1
16 15 13 13 13 13 13 13 12 12 11 11 10 10 11 12 13 11 10 10 10 10 10 9 9 8 8 7 7 7 7 7 6 6 5 5 5 4 4 3 3 2
21 20 18 16 14 14 14 15 14 13 12 12 11 12 13 14 14 13 12 12 11 11 10 9 9 9 8 8 8 7 7 6 6 6 5 5 4 4 3 3 3 3
24 22 21 19 16 16 16 16 16 15 13 13 13 13 14 15 15 14 13 13 12 11 11 10 10 9 9 9 8 8 8 7 6 6 5 5 4 4 3 3 2 2
23 23 22 20 18 17 17 17 18 17 16 15 15 15 15 16 16 16 15 14 13 12 12 11 10 10 9 9 8 8 8 7 7 6 5 5 4 3 3 2 2 2
21 24 22 18 17 17 18 18 19 19 18 17 17 16 16 17 17 17 16 16 14 13 13 12 11 10 9 9 8 8 8 7 7 7 6 5 4 3 3 2 1 1
21 23 21 18 16 16 17 18 18 19 19 19 18 18 18 18 18 17 17 16 16 15 14 13 12 11 10 9 8 8 7 7 7 7 6 5 4 4 3 2 1 1
20 21 21 19 17 17 17 17 16 17 18 19 19 20 20 20 19 18 18 17 16 16 15 14 13 12 11 9 8 8 8 7 7 6 5 5 4 4 3 2 1 0
17 19 21 20 19 19 18 17 16 16 17 18 19 19 20 21 20 19 19 18 17 16 15 15 14 13 12 11 10 9 9 8 7 6 5 5 4 3 2 1 1 1
12 16 19 20 19 18 17 17 16 16 16 18 18 18 19 21 21 21 20 20 18 17 17 16 15 14 13 12 11 11 10 9 8 6 5 4 3 2 1 1 1 2
10 14 18 20 19 17 16 16 16 16 16 17 17 18 18 20 21 22 22 22 21 20 18 17 17 16 14 13 13 12 11 9 8 7 5 4 3 2 2 2 2 2
11 14 17 19 19 18 17 16 16 17 17 17 17 18 18 19 21 21 21 21 21 21 20 19 18 17 15 14 13 12 11 9 8 7 6 4 3 3 3 2 2 3
11 13 14 16 17 17 17 17 17 17 18 17 17 18 19 20 22 23 22 22 22 21 20 20 18 17 16 15 14 13 11 10 8 6 5 4 3 3 2 2 2 3
9 10 11 13 14 14 15 16 17 18 18 17 17 18 20 21 23 25 24 23 22 21 20 19 18 17 16 15 14 12 11 9 8 6 5 4 3 3 2 2 2 2
10 10 10 11 11 12 14 16 18 18 18 18 17 18 20 21 23 24 23 23 23 21 20 19 18 17 16 16 14 12 11 9 8 6 6 5 4 3 2 2 2 2
9 10 10 10 10 11 12 14 16 17 17 18 18 18 19 19 20 21 21 22 22 22 21 20 18 18 19 18 15 12 10 8 7 6 5 4 4 3 2 2 2 3
9 10 10 10 10 10 11 12 14 15 16 17 17 18 18 18 19 20 22 22 22 22 22 20 19 21 22 20 16 13 10 7 6 6 4 4 3 3 3 3 3 4
10 10 11 11 10 10 10 11 11 13 15 16 16 17 16 17 18 20 21 22 21 21 21 19 20 23 22 18 15 13 10 7 5 4 4 4 4 3 3 4 4 5
11 11 11 11 11 11 10 11 11 12 13 14 15 15 15 16 17 18 20 20 21 20 19 18 21 22 19 16 13 10 8 6 5 5 4 5 5 4 5 5 5 6
12 12 12 12 12 11 11 11 11 11 11 13 15 15 15 16 17 18 20 20 21 20 17 18 22 22 18 15 12 8 6 5 5 5 5 5 6 6 6 6 7 7
12 12 12 12 12 12 12 12 11 11 11 13 15 15 16 17 17 18 19 19 20 20 18 19 22 21 17 14 11 8 5 4 5 6 6 7 7 7 8 8 8 9
12 12 13 13 13 13 13 13 12 11 11 13 14 14 14 15 16 18 20 19 19 20 20 21 22 20 16 14 11 8 4 3 5 7 7 8 8 9 10 10 10 10
12 13 13 13 13 14 14 13 12 12 12 14 15 14 13 15 16 17 19 21 22 23 22 21 20 18 16 14 11 7 4 3 5 7 7 9 9 10 11 11 11 11
13 14 15 14 14 14 14 13 12 12 13 14 16 14 13 15 15 15 18 24 26 24 21 20 21 19 15 12 10 7 5 3 5 7 8 9 10 11 11 11 12 13
15 15 16 16 16 15 14 14 13 12 13 15 15 13 13 15 16 17 20 24 25 23 19 18 19 17 13 10 9 8 5 3 5 8 9 10 11 12 12 11 12 14
15 16 16 16 16 15 15 14 13 12 14 15 14 13 15 18 21 22 24 25 24 22 18 14 14 14 11 10 9 8 6 5 6 9 10 11 11 12 12 14 15 15
Wind_Direction
203 199 197 195 198 199 196 197 193 188 187 186 185 182 177 172 168 163 155 149 144 140 137 133 127 122 117 115 112 107 104 102 98 96 96 93 90 88 84 83 79 82
207 204 202 200 201 201 199 201 199 195 193 190 187 182 178 175 173 170 163 157 152 149 146 142 138 133 128 123 119 113 107 105 101 97 98 94 89 84 77 69 53 27
214 212 210 207 202 198 201 206 206 204 201 194 187 182 178 177 178 176 172 167 163 160 157 153 149 146 142 137 130 124 118 112 109 107 102 95 89 84 75 60 42 16
221 220 219 217 211 205 205 209 209 207 205 198 190 184 180 179 180 180 179 176 173 170 167 163 160 156 153 149 142 137 132 126 122 120 113 105 96 90 83 68 53 27
223 225 225 223 218 213 208 210 212 209 207 203 195 188 184 182 183 183 183 183 181 179 175 172 170 166 163 159 153 148 143 137 134 133 128 121 109 99 91 78 68 37
225 228 228 226 223 220 215 215 215 211 208 206 201 195 190 188 188 188 188 187 187 185 182 179 177 174 173 169 164 160 154 147 142 141 139 134 128 123 108 84 60 14
230 232 232 231 229 226 225 222 217 212 210 208 205 201 196 193 193 194 193 193 191 190 188 186 183 181 180 179 174 167 159 152 149 148 147 142 141 143 134 114 72 6
236 237 237 237 233 231 231 227 220 215 211 208 205 204 201 198 198 198 197 197 196 195 194 192 189 187 185 185 183 175 165 159 158 157 153 148 148 151 151 151 154 258
241 243 242 239 235 233 232 229 225 219 214 211 208 205 203 202 202 201 200 201 200 199 197 195 193 190 187 188 187 182 176 170 167 165 160 157 157 158 166 181 197 233
251 256 254 248 241 236 231 228 227 223 219 216 213 209 205 203 204 203 203 203 201 201 199 196 194 190 188 189 188 186 182 176 174 173 170 171 177 188 227 251 256 265
268 268 264 258 252 246 239 233 230 228 225 221 217 212 208 205 205 205 204 204 203 202 199 196 194 192 190 190 186 182 180 178 177 178 177 184 198 218 240 256 269 275
275 264 260 258 256 255 251 245 238 232 228 223 218 215 211 207 204 204 204 206 205 202 199 196 194 193 192 189 183 178 177 178 178 180 185 194 208 224 228 239 265 277
277 267 265 264 261 261 259 254 249 241 235 228 221 217 213 205 204 206 206 209 209 203 199 196 193 192 191 185 180 177 177 177 179 183 191 195 198 207 211 226 251 264
294 288 283 275 270 267 264 259 254 249 242 235 225 219 213 207 210 212 210 209 208 201 196 193 191 190 186 180 178 178 177 177 179 183 187 186 186 187 189 208 234 250
307 301 292 282 274 267 263 259 256 250 244 239 229 219 213 215 220 219 212 207 201 194 190 187 184 184 181 177 176 176 175 175 175 176 180 180 179 182 193 214 251 269
299 293 287 283 277 268 261 258 255 251 246 240 234 227 222 223 224 218 209 202 193 186 183 178 177 180 180 177 175 173 172 172 171 172 174 180 186 200 221 236 267 284
296 291 287 284 278 271 265 258 254 251 247 242 238 234 229 222 216 210 205 202 194 184 177 171 174 183 185 184 183 178 169 164 168 172 180 197 206 218 241 258 279 291
299 295 294 291 284 276 268 261 255 251 249 245 239 235 228 217 212 208 205 202 193 182 172 169 178 185 187 186 186 182 170 163 173 184 197 216 222 234 254 268 281 287
300 297 294 293 288 281 271 261 255 249 246 245 240 234 229 223 216 209 202 194 186 178 170 170 179 183 183 180 178 177 171 168 183 197 213 229 235 246 260 269 278 284
296 294 291 290 287 281 272 262 254 248 244 244 240 232 229 227 221 211 200 189 183 176 166 169 178 179 178 176 172 169 169 169 184 203 226 239 241 251 261 267 274 277
294 290 287 285 283 278 272 264 257 249 245 243 238 229 225 225 220 208 196 184 178 172 161 165 176 177 174 172 167 162 158 158 186 210 236 244 245 253 258 263 268 267
291 289 285 280 277 274 269 263 256 247 243 243 239 228 218 215 210 199 188 178 172 168 163 165 172 174 171 167 165 163 150 157 202 223 243 249 254 260 260 264 267 266
290 287 282 277 273 269 264 259 252 245 241 242 238 226 210 204 199 188 182 178 173 169 166 164 167 170 169 168 170 172 160 178 223 241 256 260 265 270 268 269 268 266
290 285 281 276 270 266 262 255 247 243 241 239 232 221 207 198 189 177 178 181 177 171 166 165 168 172 174 177 183 188 183 210 253 265 269 270 274 275 274 275 274 274
289 284 279 274 268 266 261 253 245 241 240 237 227 210 196 190 183 173 172 173 169 163 159 161 167 173 177 185 197 203 204 234 276 280 277 277 280 282 283 282 282 285
286 281 276 271 267 266 260 252 246 238 234 230 217 198 191 189 182 173 167 165 164 161 155 153 164 177 187 196 206 216 225 252 282 286 284 285 287 290 291 290 289 290